[[{"header":{"parameterUnit":"m.s-1","parameterCategory":2,"la1":30.2991,"la2":30.254,"lo1":-89.0895,"lo2":-89.0444,"dy":0.0017,"dx":0.0017,"nx":28,"ny":28,"refTime":"2025-08-16T21:00:00:Z","depth":"0","parameterNumber":2,"parameterNumberName":"U-component_of_CURRENTS"},"data":[0,0,0,0,0,0,0,0,0,0,0,0,0,0,0,0,0,0,0,0,0,0,0,0,0,0,0,0,0,0,0,0,0,0,0,0,0,0,0,0,0,0,0,0,0,0,0,0,0,0,0,0,0,0,0,0,0,0,0.2348,0.2349,0,0.2372,0.2372,0.2372,0.2354,0.2354,0.2353,0.2353,0.2246,0.2244,0.2242,0,0,0,0,0,0,0,0,0,0,0,0,0,0.2305,0.2305,0.2348,0.2349,0.2349,0.2372,0.2372,0.2372,0.2355,0.2354,0.2353,0.2352,0.2247,0.2244,0.2241,0,0,0,0,0,0,0,0,0,0,0,0,0,0.2323,0.2306,0.2348,0.2345,0.2345,0.2372,0.2372,0.2372,0.2355,0.2354,0.2353,0.2352,0.2248,0.2244,0.2241,0.2237,0,0,0.223,0.2229,0,0,0,0,0,0,0,0,0.2322,0.2325,0.2345,0.2345,0.2345,0.2361,0.2317,0.2321,0.2355,0.2349,0.2353,0.2352,0.2274,0.2269,0.2274,0.2232,0.2227,0.223,0.2228,0.2227,0.2226,0,0,0,0,0,0,0,0.2321,0.2324,0.2355,0.2346,0.2346,0.2348,0.2349,0.2318,0.2312,0.2349,0.2349,0.2355,0.2273,0.2278,0.2271,0.2226,0.223,0.2227,0.2225,0.2224,0.2276,0.228,0,0,0,0,0,0,0.2323,0.2323,0.2355,0.2356,0.2334,0.2349,0.2351,0.2355,0.2315,0.231,0.2355,0.2354,0.2284,0.2275,0.2267,0.2323,0.2227,0.2223,0.2221,0.2273,0.2277,0.2281,0,0,0,0,0,0,0.2322,0.2325,0.2354,0.2342,0.2346,0.2351,0.2356,0.2356,0.2366,0.2322,0.2313,0.2367,0.2283,0.2272,0.2277,0.2315,0.2222,0.2219,0.2269,0.2274,0.2279,0.2393,0,0,0,0,0,0,0.232,0.2325,0.2329,0.2342,0.2346,0.238,0.2357,0.2357,0.2372,0.237,0.2328,0.2318,0.2281,0.2283,0.2273,0.2309,0.2216,0.2264,0.2271,0.2277,0.2384,0.2401,0.2415,0,0,0,0,0,0.2319,0.2325,0.2329,0.2333,0.2352,0.2381,0.2384,0.2383,0.2374,0.2387,0.2378,0.2319,0.2318,0.2282,0.227,0.2306,0.2261,0.2269,0.2277,0.2378,0.2398,0.2415,0,0,0,0,0,0,0.2302,0.2325,0.2329,0.234,0.2366,0.2379,0.2386,0.2393,0.2398,0.239,0.235,0.234,0.2367,0.2328,0.2291,0.2349,0.2285,0.2291,0.2366,0.2384,0.2399,0.24,0.2213,0,0,0,0,0,0.2304,0.2318,0.2343,0.2354,0.2365,0.238,0.2391,0.2396,0.2403,0.2404,0.2386,0.2377,0.2391,0.2379,0.2377,0.2389,0.2432,0.2414,0.2429,0.2442,0.2441,0.2611,0.2643,0.2307,0.2306,0.2306,0,0,0.2298,0.2316,0.232,0.2353,0.2365,0.2401,0.2384,0.2405,0.2442,0.2389,0.2424,0.2425,0.2412,0.2447,0.2454,0.2413,0.256,0.2452,0.2463,0.2454,0.2623,0.2656,0.2685,0.2312,0.2311,0.231,0,0,0.2304,0.2312,0.2331,0.236,0.2393,0.2411,0.2423,0.2451,0.2467,0.25,0.2499,0.2535,0.2516,0.2546,0.2551,0.2649,0.2646,0.2643,0.2702,0.287,0.2899,0.2925,0.3018,0.3052,0.264,0.264,0.264,0,0.2297,0.2331,0.2342,0.2379,0.2409,0.2422,0.2463,0.2489,0.252,0.2553,0.2519,0.2597,0.2573,0.2663,0.2694,0.2682,0.2756,0.2626,0.2891,0.2918,0.2943,0.3032,0.3068,0.2647,0.2646,0.2645,0.2645,0,0.2329,0.2362,0.2376,0.2433,0.2466,0.2501,0.2545,0.2581,0.2596,0.2633,0.2718,0.2723,0.2777,0.2781,0.2749,0.2915,0.2904,0.2902,0.2842,0.2984,0.3068,0.3104,0.2656,0.2654,0.2652,0.265,0,0,0.2308,0.2384,0.2393,0.2426,0.25,0.2525,0.26,0.2678,0.2732,0.2777,0.2873,0.2912,0.2936,0.2947,0.2949,0.3054,0.3277,0.3043,0.3049,0.313,0.3621,0.356,0.3591,0.3342,0.3348,0.3354,0.3608,0,0.2336,0.2409,0.2447,0.2519,0.2561,0.2609,0.267,0.2743,0.2803,0.2897,0.296,0.3037,0.3,0.3031,0.3152,0.3233,0.3376,0.3205,0.3474,0.348,0.3408,0.3633,0.3572,0.379,0.3642,0.3647,0.3652,0,0.2368,0.2415,0.2484,0.2564,0.2583,0.2622,0.2729,0.279,0.2931,0.2984,0.3109,0.3162,0.3312,0.3268,0.3536,0.3436,0.3552,0.3614,0.3627,0.355,0.3487,0.3627,0.3859,0.3753,0.3705,0.3701,0.3697,0,0.2354,0.2445,0.2496,0.2526,0.2613,0.2645,0.2694,0.2814,0.2876,0.3062,0.3131,0.333,0.3419,0.3615,0.3732,0.3673,0.4025,0.3971,0.4038,0.4031,0.4017,0.3998,0.4172,0.4237,0.4237,0.4236,0.4235,0,0.2378,0.2415,0.2482,0.2505,0.2546,0.2625,0.2692,0.2772,0.2918,0.3018,0.3175,0.3297,0.3521,0.3721,0.3835,0.4044,0.4144,0.4099,0.4131,0.405,0.4032,0.3962,0.3869,0.4246,0.4243,0.4242,0.424,0,0.2343,0.2399,0.2441,0.2517,0.2533,0.2557,0.265,0.2726,0.2856,0.3005,0.3072,0.3328,0.3578,0.3782,0.4093,0.416,0.4265,0.4424,0.4267,0.4275,0.4163,0.4077,0.4136,0.3986,0.4536,0.4536,0.4537,0,0.2329,0.2351,0.2408,0.243,0.2452,0.2503,0.2552,0.2678,0.2778,0.3011,0.3099,0.3373,0.3569,0.3976,0.4189,0.4446,0.431,0.4515,0.4389,0.4199,0.413,0.3937,0.3789,0.4421,0.442,0.442,0.442,0,0.2298,0.231,0.2347,0.2397,0.2435,0.2465,0.2551,0.2593,0.277,0.289,0.3092,0.3257,0.3663,0.3926,0.4262,0.4398,0.4285,0.4508,0.4416,0.4151,0.3858,0.3712,0.4144,0.4416,0.4416,0.4417,0.4417,0.4417,0.2268,0.2285,0.2355,0.2375,0.2409,0.243,0.2421,0.2538,0.2633,0.2791,0.3015,0.3242,0.3695,0.4145,0.4236,0.4366,0.4245,0.4329,0.4272,0.4117,0.3875,0.4243,0.447,0.447,0.4471,0.4471,0.4472,0,0.2288,0.2324,0.2347,0.2364,0.2352,0.2398,0.2434,0.2421,0.2468,0.271,0.2871,0.3336,0.3665,0.3982,0.429,0.4198,0.4004,0.4095,0.3843,0.3727,0.4207,0.4101,0.4131,0.4131,0.4131,0.4131,0.4131,0.4131,0.2325,0.2364,0.2363,0.2321,0.2308,0.2259,0.2243,0.2232,0.2353,0.2548,0.2802,0.3075,0.3589,0.4078,0.4161,0.4058,0.3694,0.3605,0.3467,0.3848,0.3865,0.388,0.3762,0.3721,0.372,0.2894,0.2888,0.2884]},{"header":{"parameterUnit":"m.s-1","parameterCategory":2,"la1":30.2991,"la2":30.254,"lo1":-89.0895,"lo2":-89.0444,"dy":0.0017,"dx":0.0017,"nx":28,"ny":28,"refTime":"2025-08-16T21:00:00:Z","depth":"0","parameterNumber":3,"parameterNumberName":"V-component_of_CURRENTS"},"data":[0,0,0,0,0,0,0,0,0,0,0,0,0,0,0,0,0,0,0,0,0,0,0,0,0,0,0,0,0,0,0,0,0,0,0,0,0,0,0,0,0,0,0,0,0,0,0,0,0,0,0,0,0,0,0,0,0,0,-0.0539,-0.054,0,-0.0589,-0.0589,-0.059,-0.0594,-0.0593,-0.0593,-0.0593,-0.0535,-0.0533,-0.0532,0,0,0,0,0,0,0,0,0,0,0,0,0,-0.0409,-0.0411,-0.0539,-0.054,-0.0541,-0.0589,-0.0589,-0.059,-0.0594,-0.0593,-0.0593,-0.0593,-0.0535,-0.0533,-0.0532,0,0,0,0,0,0,0,0,0,0,0,0,0,-0.046,-0.0412,-0.0539,-0.0551,-0.0553,-0.0589,-0.0589,-0.059,-0.0594,-0.0593,-0.0593,-0.0593,-0.0535,-0.0534,-0.0532,-0.0526,0,0,-0.0525,-0.0524,0,0,0,0,0,0,0,0,-0.0457,-0.0464,-0.0548,-0.055,-0.0553,-0.0588,-0.0522,-0.0564,-0.0594,-0.0575,-0.0593,-0.0593,-0.0545,-0.0542,-0.0549,-0.0523,-0.0521,-0.0525,-0.0524,-0.0523,-0.0523,0,0,0,0,0,0,0,-0.0453,-0.0462,-0.0555,-0.0549,-0.0552,-0.0541,-0.0548,-0.053,-0.0556,-0.0576,-0.0578,-0.0589,-0.0545,-0.0551,-0.0547,-0.052,-0.0525,-0.0523,-0.0522,-0.0521,-0.0489,-0.049,0,0,0,0,0,0,-0.0457,-0.0459,-0.0554,-0.0557,-0.0507,-0.0544,-0.0552,-0.0574,-0.0559,-0.0558,-0.0589,-0.0589,-0.0554,-0.055,-0.0545,-0.0505,-0.0523,-0.0521,-0.052,-0.0489,-0.0489,-0.049,0,0,0,0,0,0,-0.0454,-0.0465,-0.0552,-0.0511,-0.0521,-0.0548,-0.0572,-0.0575,-0.0583,-0.057,-0.0567,-0.0594,-0.0554,-0.0548,-0.0537,-0.0504,-0.052,-0.0518,-0.0488,-0.0489,-0.0489,-0.0445,0,0,0,0,0,0,-0.045,-0.0464,-0.0475,-0.0512,-0.0524,-0.0568,-0.0573,-0.0577,-0.0592,-0.0592,-0.0573,-0.0568,-0.0553,-0.0541,-0.0535,-0.0501,-0.0517,-0.0488,-0.0489,-0.0489,-0.0446,-0.0444,-0.0442,0,0,0,0,0,-0.0446,-0.0463,-0.0476,-0.0487,-0.0541,-0.0568,-0.0572,-0.0587,-0.0593,-0.0593,-0.059,-0.0569,-0.0541,-0.054,-0.0533,-0.0497,-0.0488,-0.0488,-0.0489,-0.0447,-0.0445,-0.0442,0,0,0,0,0,0,-0.041,-0.0467,-0.0481,-0.0515,-0.0538,-0.057,-0.0574,-0.0589,-0.059,-0.0586,-0.0575,-0.0569,-0.0548,-0.0542,-0.0541,-0.0496,-0.051,-0.0509,-0.048,-0.0477,-0.0475,-0.0407,-0.0515,0,0,0,0,0,-0.041,-0.0435,-0.0483,-0.0503,-0.0518,-0.0547,-0.0559,-0.0572,-0.0583,-0.0584,-0.0575,-0.0564,-0.0548,-0.0529,-0.0521,-0.0493,-0.0435,-0.0469,-0.0467,-0.0465,-0.0409,-0.0315,-0.0297,-0.0492,-0.0492,-0.0492,0,0,-0.0398,-0.0434,-0.0446,-0.0496,-0.0515,-0.0516,-0.0552,-0.057,-0.0553,-0.0575,-0.0547,-0.056,-0.0545,-0.0517,-0.0505,-0.0502,-0.0388,-0.0466,-0.0464,-0.0407,-0.0313,-0.0294,-0.0276,-0.0493,-0.0493,-0.0493,0,0,-0.0374,-0.0422,-0.0426,-0.0447,-0.0482,-0.0498,-0.0504,-0.0538,-0.0535,-0.053,-0.0536,-0.0525,-0.0513,-0.0482,-0.0466,-0.0448,-0.0391,-0.0463,-0.0375,-0.0287,-0.0267,-0.025,-0.0172,-0.0148,-0.0449,-0.0449,-0.0449,0,-0.0351,-0.037,-0.0427,-0.0431,-0.0431,-0.0486,-0.0468,-0.0477,-0.0498,-0.0464,-0.0512,-0.0459,-0.048,-0.039,-0.0404,-0.0433,-0.0378,-0.0382,-0.0277,-0.0258,-0.0241,-0.0165,-0.0139,-0.0447,-0.0447,-0.0447,-0.0447,0,-0.0322,-0.0335,-0.0338,-0.0355,-0.0364,-0.0364,-0.0387,-0.038,-0.0394,-0.0385,-0.0327,-0.0357,-0.0297,-0.0336,-0.0368,-0.0257,-0.0258,-0.0293,-0.0268,-0.0217,-0.0143,-0.0116,-0.0444,-0.0445,-0.0445,-0.0446,0,0,-0.0262,-0.0307,-0.0302,-0.0284,-0.0321,-0.0313,-0.0286,-0.0249,-0.0163,-0.0212,-0.008,-0.0134,-0.0129,-0.0112,-0.0146,-0.0102,0.0012,-0.0145,-0.0141,-0.004,0.0222,0.0136,0.0157,0.0002,0.0007,0.0012,0.0218,0,-0.0207,-0.0192,-0.0226,-0.0175,-0.0163,-0.0186,-0.0133,-0.0105,-0.007,0.0041,0.0023,0.012,-0.0045,0.0014,0.0023,0.004,0.0089,-0.0039,0.0136,0.0142,0.0083,0.0187,0.0137,0.031,0.0245,0.0249,0.0252,0,-0.0151,-0.0148,-0.0104,-0.0058,-0.0047,-0.0018,0.01,0.0144,0.0259,0.0309,0.0383,0.0396,0.0467,0.0323,0.0388,0.0319,0.0284,0.0262,0.0269,0.0211,0.0108,0.025,0.0362,0.0076,0.0294,0.029,0.0287,0,-0.0064,-0.0046,0.0001,0.0005,0.0038,0.0089,0.0129,0.023,0.0359,0.0523,0.0678,0.0708,0.0825,0.0759,0.0652,0.0564,0.0735,0.0616,0.0511,0.0504,0.0511,0.0496,0.0402,0.0695,0.0694,0.0694,0.0693,0,0.001,0.0054,0.0048,0.0073,0.0182,0.0182,0.036,0.0416,0.0621,0.0859,0.0842,0.1066,0.0948,0.1003,0.0823,0.0767,0.0877,0.0587,0.0576,0.0515,0.0498,0.0286,0.0128,0.0701,0.07,0.0698,0.0697,0,0.0093,0.008,0.0142,0.0187,0.0216,0.0298,0.0486,0.0674,0.082,0.1156,0.1248,0.1421,0.1481,0.1316,0.1279,0.1055,0.0807,0.09,0.082,0.0793,0.0359,0.0206,0.0215,0.0074,0.0846,0.0845,0.0845,0,0.0138,0.0168,0.0223,0.0295,0.0317,0.0447,0.0599,0.0754,0.1006,0.1386,0.1616,0.1773,0.1925,0.1797,0.1428,0.1156,0.0867,0.0921,0.071,0.038,0.0204,0.0106,-0.0022,0.0741,0.074,0.0739,0.0738,0,0.0245,0.0252,0.0307,0.045,0.0588,0.0767,0.0999,0.1215,0.15,0.1771,0.2167,0.2307,0.2186,0.1931,0.1516,0.126,0.0684,0.0888,0.0606,0.0181,0.0024,-0.0133,0.0537,0.0729,0.073,0.0731,0.0731,0.0732,0.035,0.042,0.0524,0.0665,0.0836,0.113,0.1313,0.1616,0.1988,0.2416,0.2526,0.2744,0.2338,0.1764,0.1369,0.0592,0.0623,0.0342,0.0213,0.0167,-0.0068,0.0558,0.0672,0.0672,0.0673,0.0673,0.0674,0,0.0546,0.0637,0.0766,0.0971,0.1204,0.1257,0.1646,0.1867,0.2282,0.2611,0.2876,0.2809,0.2202,0.1549,0.0553,0.0025,-0.0194,-0.0268,-0.0431,-0.0511,0.0119,0.0001,-0.0097,-0.0097,-0.0097,-0.0097,-0.0096,-0.0096,0.0685,0.0866,0.0926,0.1305,0.1448,0.1789,0.2005,0.2292,0.2558,0.2908,0.3039,0.3126,0.2665,0.0919,-0.0341,-0.0623,-0.1015,-0.1053,-0.1233,-0.0868,-0.0822,-0.0779,-0.093,-0.1222,-0.1224,-0.1831,-0.1837,-0.1842]}],[{"header":{"parameterUnit":"m.s-1","parameterCategory":2,"la1":30.2991,"la2":30.254,"lo1":-89.0895,"lo2":-89.0444,"dy":0.0017,"dx":0.0017,"nx":28,"ny":28,"refTime":"2025-08-16T21:00:00:Z","depth":"2","parameterNumber":2,"parameterNumberName":"U-component_of_CURRENTS"},"data":[0,0,0,0,0,0,0,0,0,0,0,0,0,0,0,0,0,0,0,0,0,0,0,0,0,0,0,0,0,0,0,0,0,0,0,0,0,0,0,0,0,0,0,0,0,0,0,0,0,0,0,0,0,0,0,0,0,0,0.2174,0.2174,0,0.2254,0.2256,0.2258,0.2305,0.2305,0.2304,0.2303,0.2297,0.2298,0.2298,0,0,0,0,0,0,0,0,0,0,0,0,0,0.2083,0.2086,0.2174,0.2174,0.2174,0.2254,0.2256,0.2258,0.2306,0.2305,0.2303,0.2303,0.2297,0.2298,0.2299,0,0,0,0,0,0,0,0,0,0,0,0,0,0.215,0.2086,0.2174,0.2199,0.2201,0.2253,0.2256,0.2259,0.2306,0.2305,0.2303,0.2302,0.2297,0.2298,0.2299,0.2331,0,0,0.2302,0.2302,0,0,0,0,0,0,0,0,0.2146,0.2155,0.2195,0.2197,0.2199,0.2258,0.2221,0.2275,0.2306,0.2278,0.2303,0.2301,0.2269,0.2273,0.2309,0.233,0.233,0.2302,0.2302,0.2303,0.2303,0,0,0,0,0,0,0,0.2142,0.2152,0.2218,0.2195,0.2197,0.2212,0.2221,0.2233,0.2288,0.2281,0.2281,0.2272,0.2272,0.2308,0.2308,0.233,0.2302,0.2303,0.2303,0.2304,0.2393,0.2395,0,0,0,0,0,0,0.2109,0.2148,0.2215,0.2219,0.2156,0.2214,0.2225,0.225,0.2289,0.2291,0.2273,0.2274,0.2307,0.2307,0.2308,0.2373,0.2303,0.2304,0.2304,0.2391,0.2393,0.2395,0,0,0,0,0,0,0.2108,0.2116,0.2211,0.2173,0.2185,0.2215,0.2244,0.2252,0.2304,0.2282,0.2285,0.2317,0.2306,0.2306,0.2327,0.2371,0.2304,0.2305,0.2389,0.2392,0.2394,0.2485,0,0,0,0,0,0,0.2105,0.2116,0.2159,0.2172,0.2185,0.2255,0.2245,0.2254,0.2293,0.2297,0.232,0.2318,0.2305,0.2326,0.2328,0.2371,0.2306,0.2387,0.239,0.2393,0.2479,0.249,0.2499,0,0,0,0,0,0.2103,0.2143,0.2162,0.217,0.2233,0.2255,0.2267,0.2289,0.2297,0.2332,0.2338,0.2318,0.2349,0.2329,0.2331,0.2375,0.2385,0.2389,0.2393,0.2475,0.2488,0.2499,0,0,0,0,0,0,0.2108,0.2152,0.2172,0.2222,0.2244,0.2259,0.2284,0.2307,0.235,0.2349,0.234,0.2339,0.2393,0.2363,0.234,0.241,0.2365,0.237,0.2427,0.2439,0.2448,0.2441,0.2307,0,0,0,0,0,0.2133,0.2177,0.2208,0.2238,0.2254,0.2282,0.2304,0.2321,0.2336,0.2358,0.238,0.239,0.2413,0.2405,0.2435,0.2453,0.2457,0.2483,0.2493,0.2501,0.2498,0.2533,0.2546,0.2408,0.2408,0.2408,0,0,0.2128,0.2159,0.2181,0.2243,0.2259,0.2302,0.2296,0.2325,0.236,0.2345,0.2416,0.2447,0.2435,0.2479,0.2495,0.245,0.2553,0.2507,0.2514,0.2505,0.2539,0.2552,0.2564,0.2411,0.2411,0.241,0,0,0.2121,0.2181,0.2218,0.2255,0.2292,0.2321,0.2335,0.2386,0.2413,0.2469,0.2483,0.2527,0.2555,0.2565,0.2563,0.2638,0.2631,0.2653,0.2666,0.2702,0.2713,0.2723,0.2787,0.2802,0.2624,0.2625,0.2625,0,0.2144,0.218,0.2225,0.2271,0.2301,0.2332,0.2377,0.2411,0.2468,0.2495,0.2492,0.2598,0.2594,0.2639,0.266,0.2662,0.2687,0.2622,0.2715,0.2725,0.2733,0.2795,0.2811,0.2629,0.2629,0.2628,0.2628,0,0.2144,0.2204,0.2216,0.2301,0.2352,0.2381,0.2432,0.249,0.2529,0.2568,0.2654,0.2675,0.2723,0.2741,0.2712,0.2782,0.2788,0.2753,0.2684,0.2753,0.2814,0.2829,0.2636,0.2635,0.2633,0.2632,0,0,0.2143,0.2217,0.2229,0.2271,0.2375,0.2405,0.2475,0.2546,0.2588,0.2664,0.2735,0.2782,0.2817,0.2817,0.2823,0.2832,0.2927,0.2807,0.2807,0.2871,0.3038,0.295,0.2957,0.2909,0.2911,0.2913,0.3072,0,0.2145,0.2222,0.2268,0.2344,0.2395,0.2464,0.2527,0.26,0.2656,0.2739,0.2776,0.2861,0.2834,0.288,0.2889,0.2932,0.2962,0.2889,0.296,0.2963,0.2875,0.2968,0.2748,0.2861,0.3085,0.3087,0.3089,0,0.2141,0.2202,0.2278,0.2378,0.2406,0.2463,0.2577,0.2632,0.2739,0.279,0.2874,0.2933,0.3008,0.2966,0.3055,0.3013,0.3032,0.3047,0.3052,0.2939,0.2899,0.282,0.2878,0.3112,0.311,0.3108,0.3107,0,0.2106,0.2208,0.2265,0.2303,0.2427,0.2471,0.254,0.2653,0.2724,0.2842,0.2933,0.3014,0.3113,0.3123,0.3157,0.3123,0.3246,0.3202,0.3151,0.3147,0.2954,0.2928,0.3263,0.3263,0.3263,0.3262,0.3262,0,0.2098,0.2162,0.2246,0.228,0.2363,0.2453,0.2556,0.2622,0.2763,0.287,0.296,0.307,0.3159,0.3241,0.3213,0.3232,0.3298,0.318,0.3179,0.2983,0.2959,0.315,0.3134,0.3268,0.3267,0.3266,0.3265,0,0.2095,0.2135,0.2202,0.2303,0.2347,0.2406,0.2585,0.2667,0.2785,0.2936,0.3,0.3178,0.3273,0.3326,0.3393,0.3339,0.3333,0.3319,0.3099,0.3067,0.3207,0.3195,0.3301,0.3299,0.3297,0.3296,0.3295,0,0.212,0.2143,0.2215,0.2255,0.2311,0.2428,0.253,0.2668,0.2775,0.2982,0.3062,0.3235,0.329,0.3365,0.3334,0.3309,0.3338,0.3095,0.2964,0.3221,0.3211,0.32,0.3191,0.278,0.2775,0.2771,0.2767,0,0.2169,0.2165,0.2206,0.229,0.2367,0.2465,0.261,0.2676,0.2845,0.2934,0.304,0.3085,0.3224,0.3112,0.3129,0.3068,0.3069,0.3007,0.3351,0.2781,0.2735,0.2723,0.273,0.2729,0.2733,0.2736,0.2738,0.2739,0.22,0.2224,0.2252,0.2327,0.241,0.2466,0.2486,0.2602,0.267,0.2725,0.2878,0.2842,0.2926,0.2809,0.2726,0.2704,0.2892,0.2755,0.2767,0.2783,0.2671,0.2621,0.2577,0.2579,0.2582,0.2584,0.2586,0,0.2225,0.2257,0.232,0.2364,0.2416,0.2475,0.253,0.2471,0.2432,0.2525,0.2529,0.233,0.2287,0.2361,0.2281,0.2287,0.225,0.2189,0.2121,0.2162,0.2199,0.2052,0.1797,0.1794,0.1791,0.1789,0,0,0.2237,0.2271,0.2288,0.2345,0.2393,0.2343,0.2301,0.2176,0.2157,0.2016,0.1995,0.2153,0.2289,0.1993,0.1982,0.1877,0.1993,0.181,0.2453,0.2416,0.2447,0.255,0.2376,0,0,0,0,0]},{"header":{"parameterUnit":"m.s-1","parameterCategory":2,"la1":30.2991,"la2":30.254,"lo1":-89.0895,"lo2":-89.0444,"dy":0.0017,"dx":0.0017,"nx":28,"ny":28,"refTime":"2025-08-16T21:00:00:Z","depth":"2","parameterNumber":3,"parameterNumberName":"V-component_of_CURRENTS"},"data":[0,0,0,0,0,0,0,0,0,0,0,0,0,0,0,0,0,0,0,0,0,0,0,0,0,0,0,0,0,0,0,0,0,0,0,0,0,0,0,0,0,0,0,0,0,0,0,0,0,0,0,0,0,0,0,0,0,0,-0.0126,-0.0126,0,-0.0175,-0.0176,-0.0178,-0.0261,-0.0262,-0.0263,-0.0263,-0.0334,-0.0335,-0.0337,0,0,0,0,0,0,0,0,0,0,0,0,0,-0.0124,-0.0124,-0.0126,-0.0126,-0.0126,-0.0175,-0.0177,-0.0178,-0.0261,-0.0262,-0.0263,-0.0263,-0.0334,-0.0335,-0.0337,0,0,0,0,0,0,0,0,0,0,0,0,0,-0.0154,-0.0125,-0.0126,-0.0165,-0.0168,-0.0174,-0.0177,-0.0179,-0.0261,-0.0262,-0.0263,-0.0264,-0.0333,-0.0335,-0.0337,-0.0331,0,0,-0.0343,-0.0344,0,0,0,0,0,0,0,0,-0.0152,-0.0155,-0.016,-0.0162,-0.0166,-0.0204,-0.0201,-0.0227,-0.0261,-0.0237,-0.0263,-0.0264,-0.0285,-0.0291,-0.0313,-0.0335,-0.0338,-0.0343,-0.0345,-0.0345,-0.0346,0,0,0,0,0,0,0,-0.015,-0.0154,-0.0156,-0.0159,-0.0163,-0.0186,-0.0192,-0.0207,-0.0264,-0.0239,-0.0243,-0.0231,-0.0288,-0.0311,-0.0315,-0.0339,-0.0343,-0.0345,-0.0346,-0.0347,-0.0373,-0.0373,0,0,0,0,0,0,-0.0121,-0.0152,-0.0155,-0.0157,-0.0149,-0.0184,-0.0192,-0.0199,-0.0263,-0.0271,-0.023,-0.0235,-0.0307,-0.0313,-0.0318,-0.0325,-0.0345,-0.0347,-0.0348,-0.0374,-0.0373,-0.0373,0,0,0,0,0,0,-0.0121,-0.0122,-0.0152,-0.0146,-0.015,-0.0182,-0.0191,-0.02,-0.0233,-0.0254,-0.0265,-0.0254,-0.0308,-0.0315,-0.0335,-0.0327,-0.0348,-0.035,-0.0374,-0.0374,-0.0373,-0.0332,0,0,0,0,0,0,-0.0121,-0.0122,-0.0138,-0.0144,-0.0149,-0.0153,-0.0189,-0.0199,-0.0218,-0.0225,-0.0277,-0.0285,-0.0309,-0.0332,-0.0337,-0.0331,-0.0352,-0.0375,-0.0374,-0.0373,-0.0334,-0.033,-0.0326,0,0,0,0,0,-0.0121,-0.0117,-0.0139,-0.0139,-0.0164,-0.0151,-0.0157,-0.019,-0.0218,-0.0227,-0.0263,-0.0284,-0.0329,-0.0333,-0.0339,-0.0333,-0.0376,-0.0374,-0.0373,-0.0335,-0.033,-0.0326,0,0,0,0,0,0,-0.0106,-0.0124,-0.0149,-0.0148,-0.0151,-0.0161,-0.0162,-0.019,-0.0229,-0.0239,-0.028,-0.0288,-0.0315,-0.0321,-0.0324,-0.0337,-0.0355,-0.0355,-0.0324,-0.0319,-0.0315,-0.0299,-0.0353,0,0,0,0,0,-0.0112,-0.0124,-0.0133,-0.0128,-0.0128,-0.0152,-0.0158,-0.0178,-0.0196,-0.0217,-0.0258,-0.0288,-0.0312,-0.0313,-0.0347,-0.0339,-0.0366,-0.0338,-0.0335,-0.0331,-0.0321,-0.0361,-0.036,-0.0369,-0.0369,-0.0369,0,0,-0.0098,-0.0108,-0.0115,-0.0127,-0.0133,-0.0124,-0.0161,-0.0155,-0.0155,-0.0214,-0.0243,-0.0292,-0.0315,-0.0326,-0.0334,-0.0326,-0.0343,-0.033,-0.0327,-0.0318,-0.036,-0.0359,-0.0358,-0.0368,-0.0368,-0.0369,0,0,-0.0054,-0.0088,-0.0083,-0.0088,-0.009,-0.0102,-0.0099,-0.0125,-0.0148,-0.0171,-0.022,-0.0256,-0.0292,-0.0307,-0.0314,-0.0301,-0.0342,-0.0313,-0.0257,-0.0295,-0.0295,-0.0295,-0.0331,-0.0335,-0.0286,-0.0286,-0.0286,0,-0.0056,-0.0039,-0.0073,-0.0062,-0.0055,-0.0088,-0.0068,-0.0086,-0.0122,-0.0133,-0.0172,-0.025,-0.028,-0.0276,-0.0276,-0.0293,-0.0324,-0.0273,-0.0291,-0.0292,-0.0292,-0.033,-0.0334,-0.0284,-0.0284,-0.0284,-0.0285,0,0.0002,0.0003,0.0021,0.0009,0.0006,0.0029,0.0011,-0.0008,-0.0048,-0.0078,-0.012,-0.0177,-0.0214,-0.0232,-0.0249,-0.0258,-0.0284,-0.0304,-0.0303,-0.0289,-0.0329,-0.0334,-0.0281,-0.0282,-0.0282,-0.0283,0,0,0.0023,0.0046,0.0048,0.0061,0.0045,0.006,0.0065,0.0062,0.0067,-0.0004,-0.0015,-0.0073,-0.0126,-0.0138,-0.0176,-0.0201,-0.0241,-0.0243,-0.0246,-0.0279,-0.0331,-0.0337,-0.0344,-0.0272,-0.0272,-0.0273,-0.0358,0,0.0072,0.0113,0.0107,0.0152,0.0174,0.0146,0.0159,0.0143,0.0108,0.0081,0.0018,-0.0021,-0.0077,-0.0102,-0.0138,-0.0225,-0.0253,-0.0216,-0.0339,-0.0342,-0.035,-0.0349,-0.0314,-0.0386,-0.0364,-0.0365,-0.0365,0,0.0126,0.0147,0.0193,0.0227,0.0234,0.0247,0.0256,0.0262,0.0224,0.0189,0.0135,0.0069,0.0019,-0.0041,-0.0163,-0.014,-0.0226,-0.0296,-0.0301,-0.0322,-0.0358,-0.0396,-0.0398,-0.0375,-0.0374,-0.0374,-0.0373,0,0.0166,0.021,0.0252,0.026,0.0284,0.0299,0.0307,0.0286,0.0304,0.025,0.024,0.0149,0.011,-0.0016,-0.0153,-0.0166,-0.0297,-0.0332,-0.0417,-0.0419,-0.0418,-0.0419,-0.0419,-0.0419,-0.0419,-0.0419,-0.0418,0,0.0216,0.0242,0.0277,0.0298,0.0348,0.0345,0.0376,0.0373,0.0372,0.0399,0.0299,0.0297,0.0113,0.0018,-0.0128,-0.0281,-0.0278,-0.0408,-0.044,-0.0403,-0.0401,-0.0412,-0.041,-0.0422,-0.0421,-0.0421,-0.042,0,0.0228,0.0255,0.0315,0.0362,0.0366,0.0401,0.0427,0.0465,0.0452,0.0483,0.0474,0.0406,0.028,0.0099,-0.01,-0.0228,-0.039,-0.0444,-0.0386,-0.0409,-0.0497,-0.0492,-0.0559,-0.056,-0.0561,-0.0561,-0.0562,0,0.0226,0.0259,0.0346,0.0392,0.0407,0.044,0.0473,0.0488,0.054,0.0559,0.0601,0.0501,0.0445,0.0156,-0.0098,-0.0353,-0.0386,-0.0481,-0.0499,-0.0487,-0.0511,-0.0505,-0.0499,-0.0489,-0.0489,-0.0489,-0.0489,0,0.0223,0.0267,0.0323,0.042,0.048,0.0544,0.06,0.0652,0.0693,0.0735,0.0791,0.0749,0.0484,0.024,-0.0105,-0.0275,-0.0443,-0.0487,-0.0493,-0.0451,-0.0426,-0.0448,-0.0443,-0.0488,-0.0488,-0.0488,-0.0488,-0.0488,0.0219,0.0269,0.0367,0.0452,0.0541,0.0656,0.0706,0.0798,0.0893,0.0982,0.0936,0.0898,0.06,0.0176,-0.012,-0.0424,-0.0433,-0.0538,-0.0536,-0.0535,-0.0504,-0.048,-0.0547,-0.0548,-0.0548,-0.0548,-0.0549,0,0.0223,0.0291,0.0382,0.051,0.0614,0.0664,0.0803,0.0879,0.1003,0.1091,0.1121,0.0869,0.0586,0.0259,-0.0188,-0.0472,-0.049,-0.055,-0.0513,-0.0512,-0.0512,-0.0478,-0.0516,-0.0517,-0.0517,-0.0517,0,0,0.0236,0.0314,0.0366,0.0531,0.063,0.0786,0.0877,0.1013,0.1117,0.1197,0.1195,0.1114,0.0705,0.0394,0.0,-0.0248,-0.0308,-0.0295,-0.0294,-0.0203,-0.0199,-0.0484,-0.0428,0,0,0,0,0]}],[{"header":{"parameterUnit":"m.s-1","parameterCategory":2,"la1":30.2991,"la2":30.254,"lo1":-89.0895,"lo2":-89.0444,"dy":0.0017,"dx":0.0017,"nx":28,"ny":28,"refTime":"2025-08-16T21:00:00:Z","depth":"4","parameterNumber":2,"parameterNumberName":"U-component_of_CURRENTS"},"data":[0,0,0,0,0,0,0,0,0,0,0,0,0,0,0,0,0,0,0,0,0,0,0,0,0,0,0,0,0,0,0,0,0,0,0,0,0,0,0,0,0,0,0,0,0,0,0,0,0,0,0,0,0,0,0,0,0,0,0.1097,0.1098,0,0.1162,0.1163,0.1163,0.118,0.1181,0.1181,0.1181,0.1262,0.1264,0.1266,0,0,0,0,0,0,0,0,0,0,0,0,0,0.1012,0.1013,0.1097,0.1098,0.1099,0.1162,0.1163,0.1163,0.118,0.1181,0.1181,0.1181,0.1261,0.1264,0.1266,0,0,0,0,0,0,0,0,0,0,0,0,0,0.1055,0.1014,0.1096,0.112,0.1123,0.1162,0.1163,0.1163,0.118,0.1181,0.1181,0.1181,0.1261,0.1264,0.1267,0.1282,0,0,0.1276,0.1277,0,0,0,0,0,0,0,0,0.1053,0.1058,0.1115,0.1118,0.1122,0.1168,0.1163,0.1206,0.118,0.1153,0.1181,0.1181,0.1236,0.1241,0.1245,0.1286,0.129,0.1276,0.1278,0.128,0.128,0,0,0,0,0,0,0,0.105,0.1055,0.1117,0.1116,0.1121,0.1136,0.1141,0.1171,0.1188,0.1155,0.1158,0.1174,0.1237,0.1242,0.1247,0.1291,0.1276,0.1279,0.1281,0.1282,0.1426,0.1428,0,0,0,0,0,0,0.1051,0.1052,0.1115,0.112,0.1093,0.1138,0.1144,0.1149,0.1188,0.1196,0.1174,0.1175,0.1236,0.1243,0.125,0.134,0.1279,0.1282,0.1284,0.1424,0.1427,0.1429,0,0,0,0,0,0,0.1049,0.1056,0.1113,0.1092,0.1101,0.1139,0.1145,0.115,0.1185,0.1203,0.121,0.1207,0.1237,0.1246,0.1305,0.1341,0.1284,0.1287,0.1422,0.1425,0.1428,0.1477,0,0,0,0,0,0,0.1046,0.1054,0.1066,0.1092,0.1103,0.1146,0.1145,0.1151,0.1195,0.1198,0.1234,0.1239,0.1237,0.1301,0.1308,0.1344,0.1289,0.142,0.1423,0.1427,0.1473,0.1481,0.1488,0,0,0,0,0,0.1042,0.1054,0.1066,0.1075,0.1115,0.1148,0.1154,0.1178,0.1197,0.121,0.1247,0.124,0.1329,0.1305,0.1313,0.1351,0.1418,0.1422,0.1427,0.1469,0.148,0.1488,0,0,0,0,0,0,0.1022,0.1058,0.1072,0.1093,0.1126,0.1153,0.1177,0.1199,0.1238,0.1256,0.1267,0.1276,0.1334,0.1344,0.1317,0.1405,0.1372,0.1378,0.1402,0.1412,0.1419,0.1431,0.1292,0,0,0,0,0,0.1025,0.1047,0.108,0.1103,0.1121,0.1158,0.1181,0.1204,0.124,0.1258,0.127,0.1308,0.1354,0.1385,0.1405,0.1465,0.1471,0.1495,0.1503,0.1509,0.1526,0.1567,0.158,0.1443,0.1443,0.1443,0,0,0.1028,0.1052,0.1065,0.1102,0.1131,0.1163,0.1171,0.122,0.1258,0.1263,0.1308,0.1329,0.1374,0.1427,0.1456,0.1447,0.1551,0.1515,0.152,0.1534,0.1573,0.1587,0.1598,0.1446,0.1446,0.1445,0,0,0.1043,0.1064,0.1088,0.1116,0.1171,0.119,0.1213,0.1247,0.1276,0.134,0.1346,0.1399,0.1457,0.1485,0.1519,0.1591,0.1581,0.1597,0.1659,0.1699,0.171,0.172,0.1737,0.1748,0.1612,0.1612,0.1612,0,0.1042,0.1076,0.1101,0.1133,0.1162,0.1207,0.1241,0.1282,0.1328,0.1365,0.1367,0.1467,0.1493,0.1581,0.1606,0.1609,0.1621,0.1617,0.1708,0.1719,0.1728,0.1743,0.1754,0.1615,0.1614,0.1614,0.1614,0,0.1075,0.1107,0.1127,0.1177,0.1208,0.1249,0.1302,0.1344,0.1394,0.1432,0.152,0.1554,0.1618,0.1635,0.1656,0.1737,0.1718,0.1701,0.168,0.1745,0.1756,0.1767,0.1619,0.1618,0.1617,0.1616,0,0,0.1048,0.1131,0.1141,0.1172,0.1237,0.1265,0.1341,0.1416,0.1484,0.1538,0.1614,0.1702,0.1718,0.1756,0.1768,0.1815,0.1889,0.1799,0.18,0.1808,0.1967,0.1858,0.186,0.1887,0.1889,0.1891,0.1944,0,0.1065,0.1126,0.1166,0.1229,0.1258,0.1323,0.1383,0.1464,0.1541,0.1613,0.1693,0.1765,0.1767,0.1807,0.1856,0.1882,0.1924,0.1876,0.1911,0.1912,0.1801,0.1871,0.1899,0.1952,0.1955,0.1956,0.1958,0,0.1073,0.1116,0.1174,0.1256,0.1277,0.1327,0.1437,0.1503,0.163,0.1696,0.179,0.1831,0.1927,0.1906,0.2002,0.1973,0.1984,0.1995,0.1997,0.1889,0.1825,0.1878,0.1978,0.1976,0.1975,0.1973,0.1972,0,0.1026,0.1117,0.1164,0.1191,0.1289,0.1346,0.1413,0.1533,0.1605,0.175,0.182,0.1917,0.1986,0.2026,0.2071,0.2045,0.2154,0.211,0.202,0.2011,0.2068,0.2057,0.2172,0.2172,0.2172,0.2172,0.2172,0,0.1002,0.1043,0.1157,0.1179,0.1254,0.1334,0.1427,0.1525,0.1654,0.1743,0.1856,0.1929,0.2025,0.2093,0.2103,0.2106,0.2184,0.2048,0.2028,0.2086,0.2076,0.2075,0.2063,0.2174,0.2174,0.2173,0.2173,0,0.0928,0.1004,0.1067,0.1187,0.1229,0.1288,0.1424,0.1494,0.164,0.176,0.1812,0.1967,0.206,0.2129,0.22,0.2144,0.2154,0.2129,0.2198,0.2178,0.1969,0.1959,0.2021,0.2018,0.2016,0.2013,0.2012,0,0.089,0.091,0.1051,0.11,0.1161,0.1257,0.1319,0.147,0.1547,0.1764,0.1811,0.1962,0.2045,0.2063,0.2135,0.2151,0.2125,0.2107,0.203,0.1984,0.1959,0.1954,0.1948,0.2007,0.2007,0.2006,0.2005,0,0.0801,0.0865,0.093,0.1028,0.111,0.1185,0.1296,0.1337,0.1518,0.1661,0.1775,0.1839,0.1941,0.1991,0.2033,0.2033,0.2106,0.2078,0.2082,0.2009,0.1968,0.1944,0.1941,0.1996,0.1997,0.1998,0.1999,0,0.0734,0.0772,0.0864,0.0951,0.1048,0.1104,0.1165,0.1264,0.1352,0.1596,0.1621,0.1788,0.192,0.1931,0.1964,0.197,0.1927,0.1847,0.1862,0.1873,0.1802,0.1726,0.168,0,0,0,0,0,0.066,0.0704,0.0773,0.0871,0.0964,0.1017,0.1149,0.1217,0.1382,0.1426,0.1526,0.1616,0.1698,0.1772,0.1747,0.1883,0.1921,0.1845,0.1833,0.1944,0.1955,0.1886,0,0,0,0,0,0,0.0615,0.0678,0.0738,0.0783,0.0829,0.0911,0.0991,0.1103,0.1135,0.1315,0.1364,0.1507,0.1601,0.1692,0.171,0.1734,0.1691,0.1944,0.194,0.1938,0.1948,0.1957,0.1889,0,0,0,0,0]},{"header":{"parameterUnit":"m.s-1","parameterCategory":2,"la1":30.2991,"la2":30.254,"lo1":-89.0895,"lo2":-89.0444,"dy":0.0017,"dx":0.0017,"nx":28,"ny":28,"refTime":"2025-08-16T21:00:00:Z","depth":"4","parameterNumber":3,"parameterNumberName":"V-component_of_CURRENTS"},"data":[0,0,0,0,0,0,0,0,0,0,0,0,0,0,0,0,0,0,0,0,0,0,0,0,0,0,0,0,0,0,0,0,0,0,0,0,0,0,0,0,0,0,0,0,0,0,0,0,0,0,0,0,0,0,0,0,0,0,0.0115,0.0115,0,0.0092,0.0092,0.0091,0.0058,0.0058,0.0057,0.0057,-0.0017,-0.0019,-0.002,0,0,0,0,0,0,0,0,0,0,0,0,0,0.0092,0.0093,0.0115,0.0115,0.0115,0.0092,0.0092,0.0091,0.0058,0.0058,0.0057,0.0057,-0.0017,-0.0018,-0.002,0,0,0,0,0,0,0,0,0,0,0,0,0,0.0087,0.0093,0.0115,0.0097,0.0095,0.0092,0.0092,0.0091,0.0058,0.0058,0.0057,0.0057,-0.0016,-0.0018,-0.0021,-0.0024,0,0,-0.0028,-0.0029,0,0,0,0,0,0,0,0,0.0088,0.0088,0.01,0.0098,0.0097,0.0079,0.0057,0.0051,0.0059,0.007,0.0057,0.0056,0.0012,0.0007,0.0002,-0.0027,-0.0031,-0.0028,-0.003,-0.0031,-0.0031,0,0,0,0,0,0,0,0.0088,0.0089,0.0104,0.01,0.0098,0.0078,0.0076,0.0055,0.0042,0.0069,0.0067,0.0068,0.0011,0.0005,0.0,-0.0032,-0.0028,-0.003,-0.0032,-0.0033,-0.009,-0.0091,0,0,0,0,0,0,0.0098,0.0089,0.0105,0.0103,0.0093,0.0079,0.0077,0.0084,0.0043,0.0038,0.0069,0.0067,0.0009,0.0003,-0.0003,-0.0018,-0.0031,-0.0033,-0.0034,-0.009,-0.009,-0.0091,0,0,0,0,0,0,0.0098,0.01,0.0106,0.0097,0.0096,0.008,0.0087,0.0084,0.008,0.0044,0.0037,0.0069,0.0008,0.0001,-0.002,-0.0021,-0.0034,-0.0036,-0.009,-0.009,-0.009,-0.0043,0,0,0,0,0,0,0.0097,0.01,0.0113,0.0098,0.0097,0.0115,0.0088,0.0084,0.0082,0.0079,0.0042,0.0034,0.0007,-0.0017,-0.0023,-0.0024,-0.0038,-0.009,-0.009,-0.009,-0.0044,-0.0041,-0.0039,0,0,0,0,0,0.0097,0.0121,0.0114,0.0116,0.0115,0.0116,0.0114,0.0098,0.0083,0.009,0.0057,0.0036,-0.0022,-0.0018,-0.0026,-0.0028,-0.009,-0.009,-0.009,-0.0045,-0.0042,-0.0039,0,0,0,0,0,0,0.0121,0.012,0.0111,0.0135,0.0129,0.0111,0.0117,0.0104,0.0085,0.0075,0.0039,0.0029,0.0009,-0.0015,-0.0009,-0.0046,-0.0061,-0.0063,-0.0025,-0.0022,-0.0019,-0.0021,-0.004,0,0,0,0,0,0.0133,0.0146,0.0139,0.0156,0.0155,0.0136,0.0135,0.0121,0.0102,0.0093,0.0072,0.0037,0.0003,-0.0012,-0.0039,-0.0054,-0.0095,-0.0063,-0.006,-0.0057,-0.0065,-0.0126,-0.0129,-0.0091,-0.0091,-0.0091,0,0,0.0145,0.0147,0.0154,0.0162,0.0152,0.0157,0.0133,0.0133,0.0131,0.0087,0.0083,0.005,0.0002,-0.0019,-0.003,-0.0039,-0.0088,-0.0058,-0.0055,-0.0064,-0.0126,-0.013,-0.0134,-0.0091,-0.0091,-0.0091,0,0,0.017,0.0179,0.0192,0.0196,0.019,0.0178,0.0181,0.0168,0.0156,0.0146,0.0107,0.0075,0.0042,0.0002,-0.0025,-0.0023,-0.0069,-0.0028,-0.0018,-0.0076,-0.008,-0.0084,-0.0132,-0.014,-0.0029,-0.0029,-0.0029,0,0.0187,0.0203,0.0197,0.0212,0.0217,0.0189,0.0201,0.0187,0.0171,0.0157,0.0151,0.0079,0.0046,-0.0006,-0.0006,-0.0018,-0.0055,-0.0024,-0.0073,-0.0078,-0.0083,-0.0131,-0.0141,-0.0027,-0.0027,-0.0027,-0.0027,0,0.0214,0.0233,0.0242,0.0249,0.0254,0.0263,0.0245,0.0242,0.0223,0.02,0.016,0.011,0.0064,0.0049,0.002,-0.003,-0.0046,-0.0059,-0.008,-0.0083,-0.0134,-0.0145,-0.0023,-0.0024,-0.0025,-0.0025,0,0,0.0236,0.0258,0.0261,0.0275,0.0276,0.0283,0.0279,0.0263,0.0251,0.0221,0.0194,0.0133,0.0101,0.0067,0.0025,-0.0028,-0.0088,-0.0054,-0.0058,-0.0098,-0.0214,-0.0178,-0.0188,-0.0109,-0.0111,-0.0113,-0.0232,0,0.0256,0.0296,0.0296,0.0326,0.0344,0.0328,0.0329,0.0309,0.028,0.0251,0.0177,0.0138,0.0108,0.0082,0.0024,-0.0064,-0.0117,-0.0054,-0.0208,-0.0212,-0.0178,-0.0199,-0.0119,-0.0241,-0.0243,-0.0245,-0.0247,0,0.0276,0.0304,0.0345,0.0368,0.0373,0.0384,0.0377,0.0374,0.0318,0.0293,0.0232,0.0174,0.0086,0.0065,-0.0089,-0.0048,-0.0126,-0.0193,-0.0199,-0.0193,-0.0198,-0.024,-0.0268,-0.0266,-0.0265,-0.0263,-0.0262,0,0.0294,0.0332,0.0369,0.0383,0.0406,0.0414,0.0415,0.0385,0.038,0.0313,0.0291,0.0181,0.0124,0.0005,-0.0119,-0.0114,-0.0288,-0.0299,-0.0343,-0.0342,-0.0359,-0.0354,-0.041,-0.041,-0.041,-0.041,-0.0409,0,0.0317,0.0345,0.0385,0.0409,0.0446,0.0447,0.0463,0.0447,0.0414,0.0402,0.0314,0.0271,0.0105,-0.0009,-0.0124,-0.0263,-0.0294,-0.0351,-0.0374,-0.0334,-0.0325,-0.0366,-0.036,-0.0414,-0.0413,-0.0412,-0.0411,0,0.0329,0.0356,0.0405,0.0445,0.0459,0.0486,0.0509,0.051,0.0482,0.0459,0.0437,0.0321,0.0179,0.0021,-0.0178,-0.0258,-0.04,-0.0439,-0.0379,-0.0395,-0.0417,-0.0407,-0.0516,-0.0516,-0.0515,-0.0515,-0.0515,0,0.0337,0.0369,0.0437,0.0467,0.0488,0.0528,0.0547,0.0544,0.0545,0.0492,0.0474,0.0343,0.0253,0.0005,-0.0163,-0.0384,-0.0404,-0.048,-0.0458,-0.0419,-0.0431,-0.042,-0.041,-0.0515,-0.0515,-0.0515,-0.0515,0,0.0352,0.0382,0.0418,0.0483,0.0522,0.057,0.0595,0.0605,0.0592,0.0575,0.0507,0.0377,0.022,0.0023,-0.0142,-0.03,-0.0436,-0.0479,-0.0481,-0.0461,-0.0419,-0.0429,-0.0419,-0.0514,-0.0514,-0.0515,-0.0515,0,0.0353,0.0378,0.0423,0.0479,0.0533,0.0575,0.0604,0.0606,0.0611,0.0566,0.0545,0.0383,0.0289,0.0066,-0.009,-0.0237,-0.0277,-0.0323,-0.0334,-0.0336,-0.024,-0.0158,-0.0202,0,0,0,0,0,0.0346,0.0361,0.0408,0.0465,0.0524,0.0561,0.0607,0.0629,0.0633,0.0601,0.058,0.0444,0.0218,0.0111,-0.003,-0.0109,-0.032,-0.028,-0.0382,-0.0512,-0.0512,-0.0426,0,0,0,0,0,0,0.0329,0.0367,0.0389,0.0438,0.0482,0.0542,0.0581,0.0598,0.0584,0.0577,0.0462,0.0417,0.0194,0.0303,-0.003,-0.0077,-0.016,-0.0384,-0.0386,-0.0511,-0.0512,-0.0512,-0.0424,0,0,0,0,0]}]]